カタログに戻る

IRIDIUM 33 DEB

運用中PO
NORAD 36012·DEBRIS·🇺🇸 United States

打ち上げ Sep 14, 1997 から Baikonur Cosmodrome

Loading…

次のパス (今後24時間)

TLE

最新Source: Space-Track

元期: Sep 13, 2026, 19:22 UTC

1 36012U 97051UT  26256.80703615  .00006431  00000-0  22549-2 0  9993
2 36012  86.4408 196.3147 0223023 101.0632 261.5726 14.21905325693908

AllMySatでIRIDIUM 33 DEBをリアルタイム追跡

Download on the App Store